Location: Podia
(1.5569°N, 32.3469°E)
Time: 08:22:22
(UTC+00:00)

Hubble Space Telescope - Visible Passes

Search period start: 11 May 2021 00:00
Search period end: 21 May 2021 00:00
Orbit: 535 x 539 km, 28.5° (Epoch: 10 May)

Date Brightness Start Highest point End Pass type
(mag) Time Alt. Az. Time Alt. Az. Time Alt. Az.
11 May 3.2 01:52:49 15° SE 01:52:49 15° SE 01:54:44 10° ESE visible
12 May 3.1 01:42:44 18° SE 01:42:44 18° SE 01:44:33 10° ESE visible
13 May 3.2 01:32:38 18° ESE 01:32:38 18° ESE 01:34:07 10° E visible
13 May 1.4 03:07:57 11° W 03:11:41 43° NNW 03:15:36 10° NE visible
14 May 3.5 01:22:29 16° E 01:22:29 16° E 01:23:31 10° E visible
14 May 1.9 02:57:49 14° W 03:00:47 31° NNW 03:04:26 10° NE visible
15 May 3.9 01:12:19 13° ENE 01:12:19 13° ENE 01:12:47 10° ENE visible
15 May 2.4 02:47:38 15° WNW 02:49:53 23° NNW 02:53:09 10° NNE visible
16 May 2.8 02:37:24 14° NW 02:39:00 17° NNW 02:41:42 10° NNE visible
17 May 3.1 02:27:08 12° NW 02:28:10 13° NNW 02:29:59 10° N visible
